| time (UTC) | temp F | wind direction | speed knots | gust knots | rain 1hr in | rain 24hr in | rain mn in | humidity % | barometer mb |
| 20260505140341 | 69 | 104 | 2.6 | 5.2 | 0.00 | 0.00 | 0.00 | 52 | 1017.5 |
| 20260505130304 | 63 | 184 | 3.5 | 4.3 | 0.00 | 0.00 | 0.00 | 63 | 1017.4 |
| 20260505124754 | 62 | 234 | 1.7 | 2.6 | 0.00 | 0.00 | 0.00 | 64 | 1017.3 |
| 20260505124251 | 61 | 299 | 0.0 | 0.9 | 0.00 | 0.00 | 0.00 | 65 | 1017.1 |
| 20260505123746 | 60 | 325 | 1.7 | 1.7 | 0.00 | 0.00 | 0.00 | 66 | 1017.1 |
| 20260505123244 | 60 | 249 | 0.9 | 0.9 | 0.00 | 0.00 | 0.00 | 66 | 1017.2 |
| 20260505122740 | 60 | 287 | 0.9 | 0.9 | 0.00 | 0.00 | 0.00 | 66 | 1017.1 |
| 20260505122237 | 59 | 250 | 0.9 | 1.7 | 0.00 | 0.00 | 0.00 | 67 | 1017.3 |
| 20260505121734 | 59 | 309 | 3.5 | 5.2 | 0.00 | 0.00 | 0.00 | 67 | 1017.2 |
| 20260505121231 | 58 | 287 | 3.5 | 5.2 | 0.00 | 0.00 | 0.00 | 68 | 1017.3 |
| 20260505120727 | 57 | 286 | 0.9 | 0.9 | 0.00 | 0.00 | 0.00 | 69 | 1017.3 |
| 20260505120223 | 57 | 285 | 3.5 | 5.2 | 0.00 | 0.00 | 0.00 | 70 | 1017.1 |
| 20260505115721 | 56 | 295 | 2.6 | 2.6 | 0.00 | 0.00 | 0.00 | 71 | 1017.2 |
| 20260505115220 | 56 | 25 | 0.9 | 0.9 | 0.00 | 0.00 | 0.00 | 71 | 1017.4 |
| 20260505114717 | 55 | 309 | 1.7 | 1.7 | 0.00 | 0.00 | 0.00 | 73 | 1017.5 |
| 20260505114213 | 55 | 348 | 0.9 | 0.9 | 0.00 | 0.00 | 0.00 | 75 | 1017.4 |
| 20260505113709 | 53 | 301 | 0.9 | 0.9 | 0.00 | 0.00 | 0.00 | 79 | 1017.3 |
| 20260505113206 | 53 | 312 | 0.0 | 0.9 | 0.00 | 0.00 | 0.00 | 81 | 1017.2 |
| 20260505112703 | 53 | 312 | 0.0 | 0.0 | 0.00 | 0.00 | 0.00 | 81 | 1017.3 |
| 20260505112201 | 53 | 314 | 0.0 | 0.9 | 0.00 | 0.00 | 0.00 | 80 | 1017.2 |
| 20260505111700 | 53 | 309 | 0.0 | 0.0 | 0.00 | 0.00 | 0.00 | 80 | 1017.1 |
| 20260505111156 | 53 | 313 | 0.0 | 0.0 | 0.00 | 0.00 | 0.00 | 79 | 1017.0 |
| 20260505110652 | 53 | 313 | 0.0 | 0.0 | 0.00 | 0.00 | 0.00 | 79 | 1016.9 |
| 20260505110150 | 53 | 307 | 0.9 | 1.7 | 0.00 | 0.00 | 0.00 | 79 | 1016.9 |
| 20260505102125 | 54 | 266 | 0.9 | 0.9 | 0.00 | 0.00 | 0.00 | 75 | 1016.4 |
| 20260505101624 | 55 | 274 | 0.9 | 1.7 | 0.00 | 0.00 | 0.00 | 72 | 1016.2 |
| 20260505101120 | 55 | 310 | 0.9 | 1.7 | 0.00 | 0.00 | 0.00 | 73 | 1015.9 |
| 20260505100616 | 54 | 331 | 2.6 | 4.3 | 0.00 | 0.00 | 0.00 | 75 | 1016.0 |
| 20260505100113 | 54 | 287 | 2.6 | 2.6 | 0.00 | 0.00 | 0.00 | 77 | 1015.9 |
| 20260505095609 | 54 | 301 | 1.7 | 1.7 | 0.00 | 0.00 | 0.00 | 78 | 1016.2 |
| 20260505095106 | 54 | 323 | 1.7 | 1.7 | 0.00 | 0.00 | 0.00 | 78 | 1016.2 |
| 20260505094603 | 54 | 322 | 0.9 | 1.7 | 0.00 | 0.00 | 0.00 | 79 | 1016.3 |
| 20260505094058 | 54 | 297 | 1.7 | 1.7 | 0.00 | 0.00 | 0.00 | 77 | 1016.4 |
| 20260505093555 | 55 | 308 | 1.7 | 1.7 | 0.00 | 0.00 | 0.00 | 75 | 1016.5 |
| 20260505093053 | 55 | 332 | 1.7 | 1.7 | 0.00 | 0.00 | 0.00 | 74 | 1016.4 |
| 20260505092550 | 55 | 305 | 0.0 | 0.9 | 0.00 | 0.00 | 0.00 | 73 | 1016.3 |
| 20260505092048 | 55 | 322 | 0.0 | 0.0 | 0.00 | 0.00 | 0.00 | 72 | 1016.4 |
| 20260505091545 | 56 | 304 | 0.0 | 0.0 | 0.00 | 0.00 | 0.00 | 71 | 1016.2 |
| 20260505091043 | 55 | 318 | 0.9 | 0.9 | 0.00 | 0.00 | 0.00 | 72 | 1016.2 |
| 20260505090541 | 54 | 317 | 1.7 | 1.7 | 0.00 | 0.00 | 0.00 | 75 | 1016.3 |
| 20260505090038 | 55 | 303 | 0.0 | 0.9 | 0.00 | 0.00 | 0.00 | 75 | 1016.3 |
| 20260505085536 | 54 | 318 | 0.0 | 0.0 | 0.00 | 0.00 | 0.00 | 74 | 1016.0 |
| 20260505085034 | 54 | 306 | 0.0 | 0.0 | 0.00 | 0.00 | 0.00 | 76 | 1016.0 |
| 20260505084532 | 54 | 303 | 0.0 | 0.0 | 0.00 | 0.00 | 0.00 | 75 | 1016.3 |
| 20260505084030 | 55 | 299 | 0.0 | 0.0 | 0.00 | 0.00 | 0.00 | 74 | 1016.2 |
| 20260505083527 | 55 | 303 | 0.0 | 0.0 | 0.00 | 0.00 | 0.00 | 73 | 1015.9 |
| 20260505083023 | 55 | 298 | 0.9 | 0.9 | 0.00 | 0.00 | 0.00 | 73 | 1015.8 |
| 20260505082519 | 55 | 321 | 0.9 | 0.9 | 0.00 | 0.00 | 0.00 | 74 | 1015.6 |
| 20260505082016 | 55 | 305 | 0.0 | 0.0 | 0.00 | 0.00 | 0.00 | 72 | 1015.5 |
| 20260505081512 | 56 | 298 | 0.0 | 0.9 | 0.00 | 0.00 | 0.00 | 70 | 1015.6 |
| 20260505081009 | 55 | 299 | 1.7 | 1.7 | 0.00 | 0.00 | 0.00 | 68 | 1015.6 |
| 20260505080506 | 56 | 349 | 0.9 | 0.9 | 0.00 | 0.00 | 0.00 | 72 | 1015.5 |
| 20260505080002 | 57 | 298 | 0.0 | 0.9 | 0.00 | 0.00 | 0.00 | 69 | 1015.6 |
| 20260505075458 | 59 | 280 | 0.9 | 0.9 | 0.00 | 0.00 | 0.00 | 65 | 1015.7 |
| 20260505074955 | 59 | 306 | 0.0 | 0.9 | 0.00 | 0.00 | 0.00 | 61 | 1015.4 |
| 20260505074453 | 59 | 300 | 0.0 | 0.0 | 0.00 | 0.00 | 0.00 | 63 | 1015.5 |
| 20260505073950 | 59 | 304 | 0.9 | 0.9 | 0.00 | 0.00 | 0.00 | 62 | 1015.3 |
| 20260505073447 | 57 | 334 | 1.7 | 1.7 | 0.00 | 0.00 | 0.00 | 67 | 1015.5 |
| 20260505072944 | 58 | 305 | 0.0 | 0.9 | 0.00 | 0.00 | 0.00 | 67 | 1015.4 |
| 20260505072440 | 57 | 321 | 0.0 | 0.0 | 0.00 | 0.00 | 0.00 | 66 | 1015.4 |
| 20260505071937 | 57 | 320 | 0.0 | 0.0 | 0.00 | 0.00 | 0.00 | 66 | 1015.4 |
| 20260505071432 | 57 | 305 | 0.0 | 0.0 | 0.00 | 0.00 | 0.00 | 68 | 1015.2 |
| 20260505070931 | 57 | 317 | 0.9 | 0.9 | 0.00 | 0.00 | 0.00 | 67 | 1015.2 |
| 20260505070427 | 58 | 305 | 0.0 | 0.0 | 0.00 | 0.00 | 0.00 | 64 | 1015.2 |
| 20260505065923 | 58 | 335 | 0.9 | 0.9 | 0.00 | 0.00 | 0.00 | 64 | 1015.0 |
| 20260505065419 | 58 | 315 | 0.0 | 0.0 | 0.00 | 0.00 | 0.00 | 65 | 1015.0 |
| 20260505064916 | 57 | 306 | 0.0 | 0.0 | 0.00 | 0.00 | 0.00 | 66 | 1015.3 |
| 20260505064414 | 57 | 318 | 0.0 | 0.0 | 0.00 | 0.00 | 0.00 | 66 | 1015.0 |
| 20260505063912 | 57 | 304 | 0.9 | 0.9 | 0.00 | 0.00 | 0.00 | 65 | 1014.9 |
| 20260505063408 | 57 | 330 | 0.0 | 0.9 | 0.00 | 0.00 | 0.00 | 66 | 1015.2 |
| 20260505062904 | 57 | 295 | 0.0 | 0.0 | 0.00 | 0.00 | 0.00 | 66 | 1015.1 |
| 20260505062402 | 58 | 306 | 0.0 | 0.0 | 0.00 | 0.00 | 0.00 | 65 | 1015.2 |
| 20260505061858 | 58 | 306 | 0.0 | 0.0 | 0.00 | 0.00 | 0.00 | 65 | 1015.1 |
| 20260505061357 | 58 | 306 | 0.0 | 0.0 | 0.00 | 0.00 | 0.00 | 64 | 1015.0 |
| 20260505060854 | 59 | 303 | 0.0 | 0.0 | 0.00 | 0.00 | 0.00 | 63 | 1015.0 |
| 20260505060350 | 59 | 303 | 0.0 | 0.0 | 0.00 | 0.00 | 0.00 | 61 | 1015.1 |
| 20260505055847 | 59 | 317 | 0.0 | 0.0 | 0.00 | 0.00 | 0.00 | 61 | 1015.0 |
| 20260505055342 | 60 | 303 | 0.9 | 0.9 | 0.00 | 0.00 | 0.00 | 61 | 1015.0 |
| 20260505054840 | 61 | 301 | 0.0 | 0.9 | 0.00 | 0.00 | 0.00 | 57 | 1015.2 |
| 20260505054337 | 61 | 299 | 0.9 | 0.9 | 0.00 | 0.00 | 0.00 | 58 | 1015.0 |
| 20260505053835 | 63 | 225 | 1.7 | 2.6 | 0.00 | 0.00 | 0.00 | 53 | 1015.0 |
| 20260505053332 | 62 | 281 | 0.9 | 0.9 | 0.00 | 0.00 | 0.00 | 55 | 1015.0 |
| 20260505052829 | 61 | 309 | 0.9 | 0.9 | 0.00 | 0.00 | 0.00 | 58 | 1014.9 |
| 20260505052326 | 62 | 285 | 0.9 | 0.9 | 0.00 | 0.00 | 0.00 | 57 | 1015.2 |
| 20260505051823 | 63 | 328 | 0.9 | 0.9 | 0.00 | 0.00 | 0.00 | 55 | 1014.9 |
| 20260505051320 | 64 | 276 | 0.0 | 0.0 | 0.00 | 0.00 | 0.00 | 52 | 1015.0 |
| 20260505050818 | 65 | 280 | 0.9 | 1.7 | 0.00 | 0.00 | 0.00 | 50 | 1014.9 |
| 20260505050317 | 65 | 327 | 0.0 | 0.9 | 0.00 | 0.00 | 0.00 | 50 | 1014.9 |
| 20260505041746 | 67 | 3 | 2.6 | 2.6 | 0.00 | 0.00 | 0.00 | 48 | 1014.8 |
| 20260505041243 | 68 | 3 | 1.7 | 2.6 | 0.00 | 0.00 | 0.00 | 47 | 1014.8 |
| 20260505040741 | 67 | 318 | 0.9 | 0.9 | 0.00 | 0.00 | 0.00 | 48 | 1014.9 |
| 20260505040238 | 68 | 303 | 1.7 | 1.7 | 0.00 | 0.00 | 0.00 | 47 | 1014.8 |
| 20260505035735 | 68 | 359 | 3.5 | 4.3 | 0.00 | 0.00 | 0.00 | 47 | 1015.0 |
| 20260505035231 | 68 | 311 | 1.7 | 1.7 | 0.00 | 0.00 | 0.00 | 48 | 1015.1 |
| 20260505034728 | 68 | 296 | 0.9 | 1.7 | 0.00 | 0.00 | 0.00 | 48 | 1015.0 |
| 20260505034225 | 67 | 311 | 4.3 | 5.2 | 0.00 | 0.00 | 0.00 | 48 | 1015.1 |
| 20260505033721 | 66 | 318 | 3.5 | 4.3 | 0.00 | 0.00 | 0.00 | 51 | 1015.1 |
| 20260505033219 | 65 | 245 | 2.6 | 2.6 | 0.00 | 0.00 | 0.00 | 54 | 1015.1 |
| 20260505032717 | 64 | 295 | 0.0 | 0.0 | 0.00 | 0.00 | 0.00 | 59 | 1015.0 |
| 20260505032212 | 63 | 291 | 0.0 | 0.0 | 0.00 | 0.00 | 0.00 | 60 | 1015.0 |
| 20260505031710 | 63 | 239 | 0.0 | 0.9 | 0.00 | 0.00 | 0.00 | 61 | 1015.1 |
| 20260505031206 | 64 | 263 | 1.7 | 1.7 | 0.00 | 0.00 | 0.00 | 59 | 1015.3 |
| 20260505030703 | 64 | 298 | 0.0 | 0.9 | 0.00 | 0.00 | 0.00 | 58 | 1015.3 |
| 20260505030159 | 64 | 320 | 2.6 | 4.3 | 0.00 | 0.00 | 0.00 | 58 | 1014.8 |
| 20260505025655 | 64 | 290 | 1.7 | 2.6 | 0.00 | 0.00 | 0.00 | 59 | 1014.9 |
| 20260505025154 | 63 | 288 | 0.9 | 0.9 | 0.00 | 0.00 | 0.00 | 61 | 1015.1 |
| 20260505024651 | 62 | 316 | 1.7 | 1.7 | 0.00 | 0.00 | 0.00 | 64 | 1014.9 |
| 20260505024148 | 62 | 308 | 1.7 | 1.7 | 0.00 | 0.00 | 0.00 | 65 | 1015.1 |
| 20260505023646 | 61 | 316 | 0.9 | 0.9 | 0.00 | 0.00 | 0.00 | 66 | 1015.0 |
| 20260505023143 | 62 | 298 | 0.0 | 0.9 | 0.00 | 0.00 | 0.00 | 66 | 1015.2 |
| 20260505022640 | 61 | 304 | 0.9 | 0.9 | 0.00 | 0.00 | 0.00 | 66 | 1015.1 |
| 20260505022137 | 61 | 306 | 0.9 | 0.9 | 0.00 | 0.00 | 0.00 | 66 | 1015.0 |
| 20260505021634 | 61 | 298 | 0.9 | 0.9 | 0.00 | 0.00 | 0.00 | 67 | 1015.3 |
| 20260505021131 | 61 | 306 | 0.9 | 0.9 | 0.00 | 0.00 | 0.00 | 67 | 1015.0 |
| 20260505020626 | 61 | 300 | 1.7 | 1.7 | 0.00 | 0.00 | 0.00 | 67 | 1015.1 |
| 20260505020123 | 61 | 310 | 0.9 | 0.9 | 0.00 | 0.00 | 0.00 | 67 | 1015.1 |
| 20260505015620 | 61 | 302 | 0.9 | 0.9 | 0.00 | 0.00 | 0.00 | 68 | 1015.0 |
| 20260505015116 | 62 | 304 | 0.9 | 1.7 | 0.00 | 0.00 | 0.00 | 67 | 1015.2 |
| 20260505014613 | 62 | 300 | 0.9 | 0.9 | 0.00 | 0.00 | 0.00 | 67 | 1015.0 |
| 20260505014110 | 62 | 303 | 1.7 | 1.7 | 0.00 | 0.00 | 0.00 | 66 | 1015.0 |
| 20260505013608 | 62 | 284 | 0.9 | 1.7 | 0.00 | 0.00 | 0.00 | 66 | 1015.1 |
| 20260505013105 | 62 | 290 | 1.7 | 1.7 | 0.00 | 0.00 | 0.00 | 66 | 1014.8 |
| 20260505012603 | 63 | 301 | 1.7 | 1.7 | 0.00 | 0.00 | 0.00 | 65 | 1014.8 |
| 20260505012059 | 63 | 294 | 0.9 | 0.9 | 0.00 | 0.00 | 0.00 | 63 | 1014.9 |
| 20260505011555 | 64 | 296 | 0.9 | 0.9 | 0.00 | 0.00 | 0.00 | 63 | 1014.6 |
| 20260505011053 | 64 | 305 | 0.9 | 0.9 | 0.00 | 0.00 | 0.00 | 63 | 1014.5 |
| 20260505010548 | 64 | 290 | 1.7 | 1.7 | 0.00 | 0.00 | 0.00 | 63 | 1014.4 |
| 20260505010044 | 64 | 299 | 0.9 | 1.7 | 0.00 | 0.00 | 0.00 | 63 | 1014.5 |
| 20260505005541 | 64 | 292 | 0.9 | 0.9 | 0.00 | 0.00 | 0.00 | 63 | 1014.4 |
| 20260505005038 | 65 | 293 | 1.7 | 1.7 | 0.00 | 0.00 | 0.00 | 62 | 1014.3 |
| 20260505004535 | 65 | 299 | 0.9 | 0.9 | 0.00 | 0.00 | 0.00 | 63 | 1014.2 |
| 20260505004032 | 65 | 286 | 1.7 | 1.7 | 0.00 | 0.00 | 0.00 | 62 | 1014.0 |
| 20260505003529 | 66 | 298 | 0.9 | 0.9 | 0.00 | 0.00 | 0.00 | 62 | 1014.0 |
| 20260505003026 | 67 | 297 | 0.0 | 0.9 | 0.00 | 0.00 | 0.00 | 60 | 1014.0 |
| 20260505002521 | 67 | 293 | 0.9 | 1.7 | 0.00 | 0.00 | 0.00 | 59 | 1013.9 |
| 20260505002021 | 68 | 293 | 1.7 | 1.7 | 0.00 | 0.00 | 0.00 | 58 | 1013.8 |
| 20260505001517 | 68 | 294 | 1.7 | 1.7 | 0.00 | 0.00 | 0.00 | 58 | 1013.7 |
| 20260505001014 | 69 | 300 | 1.7 | 1.7 | 0.00 | 0.00 | 0.00 | 56 | 1013.9 |
| 20260505000512 | 71 | 293 | 1.7 | 1.7 | 0.00 | 0.00 | 0.00 | 52 | 1013.8 |
| 20260505000009 | 72 | 298 | 1.7 | 1.7 | 0.00 | 0.00 | 0.00 | 49 | 1013.7 |
| 20260504235506 | 73 | 301 | 0.9 | 1.7 | 0.00 | 0.00 | 0.00 | 45 | 1013.7 |
| 20260504235002 | 74 | 296 | 0.0 | 0.9 | 0.00 | 0.00 | 0.00 | 44 | 1013.6 |
| 20260504234500 | 75 | 316 | 1.7 | 1.7 | 0.00 | 0.00 | 0.00 | 41 | 1013.5 |
| 20260504233956 | 75 | 320 | 0.9 | 1.7 | 0.00 | 0.00 | 0.00 | 41 | 1013.5 |
| 20260504233451 | 76 | 292 | 0.9 | 1.7 | 0.00 | 0.00 | 0.00 | 40 | 1013.4 |
| 20260504232949 | 76 | 308 | 1.7 | 1.7 | 0.00 | 0.00 | 0.00 | 40 | 1013.6 |
| 20260504232446 | 77 | 258 | 3.5 | 5.2 | 0.00 | 0.00 | 0.00 | 40 | 1013.6 |
| 20260504231943 | 77 | 293 | 0.9 | 0.9 | 0.00 | 0.00 | 0.00 | 40 | 1013.4 |
| 20260504231439 | 77 | 262 | 1.7 | 1.7 | 0.00 | 0.00 | 0.00 | 40 | 1013.6 |
| 20260504230935 | 76 | 326 | 2.6 | 4.3 | 0.00 | 0.00 | 0.00 | 40 | 1013.5 |
| 20260504230432 | 77 | 135 | 4.3 | 6.1 | 0.00 | 0.00 | 0.00 | 39 | 1013.5 |
| 20260504225932 | 77 | 161 | 2.6 | 4.3 | 0.00 | 0.00 | 0.00 | 39 | 1013.4 |
| 20260504225428 | 77 | 92 | 2.6 | 2.6 | 0.00 | 0.00 | 0.00 | 39 | 1013.7 |
| 20260504224925 | 77 | 259 | 0.9 | 1.7 | 0.00 | 0.00 | 0.00 | 39 | 1013.4 |
| 20260504224422 | 77 | 285 | 1.7 | 1.7 | 0.00 | 0.00 | 0.00 | 39 | 1013.6 |
| 20260504223919 | 78 | 301 | 4.3 | 6.1 | 0.00 | 0.00 | 0.00 | 38 | 1013.6 |
| 20260504223414 | 78 | 306 | 2.6 | 2.6 | 0.00 | 0.00 | 0.00 | 39 | 1013.7 |
| 20260504222910 | 78 | 176 | 5.2 | 7.0 | 0.00 | 0.00 | 0.00 | 38 | 1013.4 |
| 20260504222408 | 78 | 299 | 1.7 | 2.6 | 0.00 | 0.00 | 0.00 | 39 | 1013.7 |
| 20260504221906 | 78 | 328 | 4.3 | 6.1 | 0.00 | 0.00 | 0.00 | 40 | 1013.7 |
| 20260504221402 | 77 | 307 | 1.7 | 1.7 | 0.00 | 0.00 | 0.00 | 40 | 1013.8 |
| 20260504220900 | 79 | 287 | 4.3 | 8.7 | 0.00 | 0.00 | 0.00 | 40 | 1013.9 |
| 20260504220356 | 77 | 281 | 0.9 | 0.9 | 0.00 | 0.00 | 0.00 | 41 | 1013.9 |
| 20260504215853 | 77 | 218 | 1.7 | 2.6 | 0.00 | 0.00 | 0.00 | 41 | 1014.0 |
| 20260504215350 | 77 | 228 | 1.7 | 4.3 | 0.00 | 0.00 | 0.00 | 40 | 1014.0 |
| 20260504214846 | 77 | 189 | 0.9 | 1.7 | 0.00 | 0.00 | 0.00 | 41 | 1013.9 |
| 20260504214343 | 78 | 351 | 4.3 | 6.1 | 0.00 | 0.00 | 0.00 | 40 | 1014.0 |
| 20260504213840 | 78 | 310 | 1.7 | 1.7 | 0.00 | 0.00 | 0.00 | 41 | 1013.9 |
| 20260504213335 | 77 | 248 | 0.9 | 1.7 | 0.00 | 0.00 | 0.00 | 42 | 1014.0 |
| 20260504212833 | 77 | 242 | 3.5 | 7.0 | 0.00 | 0.00 | 0.00 | 41 | 1014.2 |
| 20260504212329 | 78 | 178 | 4.3 | 5.2 | 0.00 | 0.00 | 0.00 | 41 | 1014.1 |
| 20260504211827 | 77 | 235 | 0.0 | 0.9 | 0.00 | 0.00 | 0.00 | 42 | 1014.1 |
| 20260504211322 | 78 | 300 | 3.5 | 4.3 | 0.00 | 0.00 | 0.00 | 42 | 1014.1 |
| 20260504210820 | 77 | 200 | 3.5 | 4.3 | 0.00 | 0.00 | 0.00 | 42 | 1013.7 |
| 20260504210317 | 76 | 111 | 4.3 | 7.0 | 0.00 | 0.00 | 0.00 | 43 | 1014.0 |
| 20260504205814 | 76 | 201 | 3.5 | 6.1 | 0.00 | 0.00 | 0.00 | 43 | 1013.9 |
| 20260504205312 | 76 | 294 | 3.5 | 4.3 | 0.00 | 0.00 | 0.00 | 43 | 1013.9 |
| 20260504204810 | 77 | 164 | 6.1 | 9.6 | 0.00 | 0.00 | 0.00 | 43 | 1013.8 |
| 20260504204308 | 76 | 301 | 1.7 | 1.7 | 0.00 | 0.00 | 0.00 | 44 | 1014.0 |
| 20260504203807 | 77 | 132 | 6.1 | 7.0 | 0.00 | 0.00 | 0.00 | 42 | 1013.9 |
| 20260504203304 | 76 | 330 | 1.7 | 1.7 | 0.00 | 0.00 | 0.00 | 44 | 1013.9 |
| 20260504202758 | 76 | 177 | 2.6 | 2.6 | 0.00 | 0.00 | 0.00 | 44 | 1013.8 |
| 20260504202256 | 75 | 294 | 2.6 | 2.6 | 0.00 | 0.00 | 0.00 | 44 | 1014.0 |
| 20260504201753 | 74 | 268 | 1.7 | 1.7 | 0.00 | 0.00 | 0.00 | 45 | 1014.1 |
| 20260504201250 | 74 | 167 | 4.3 | 5.2 | 0.00 | 0.00 | 0.00 | 45 | 1014.2 |
| 20260504200748 | 74 | 315 | 4.3 | 6.1 | 0.00 | 0.00 | 0.00 | 45 | 1014.4 |
| 20260504200243 | 74 | 61 | 4.3 | 7.0 | 0.00 | 0.00 | 0.00 | 44 | 1014.6 |
| 20260504195740 | 74 | 191 | 2.6 | 2.6 | 0.00 | 0.00 | 0.00 | 44 | 1014.6 |
| 20260504195236 | 74 | 167 | 4.3 | 6.1 | 0.00 | 0.00 | 0.00 | 45 | 1014.7 |
| 20260504194734 | 75 | 167 | 1.7 | 1.7 | 0.00 | 0.00 | 0.00 | 46 | 1014.6 |
| 20260504194229 | 74 | 251 | 1.7 | 1.7 | 0.00 | 0.00 | 0.00 | 45 | 1014.6 |
| 20260504193726 | 74 | 144 | 3.5 | 5.2 | 0.00 | 0.00 | 0.00 | 45 | 1014.6 |
| 20260504193224 | 74 | 213 | 4.3 | 5.2 | 0.00 | 0.00 | 0.00 | 45 | 1014.6 |
| 20260504192722 | 73 | 335 | 2.6 | 2.6 | 0.00 | 0.00 | 0.00 | 45 | 1015.1 |
| 20260504192220 | 73 | 86 | 2.6 | 2.6 | 0.00 | 0.00 | 0.00 | 46 | 1014.9 |
| 20260504191718 | 73 | 339 | 0.9 | 1.7 | 0.00 | 0.00 | 0.00 | 45 | 1015.2 |
| 20260504191215 | 73 | 201 | 4.3 | 5.2 | 0.00 | 0.00 | 0.00 | 45 | 1015.0 |
| 20260504190710 | 73 | 198 | 3.5 | 6.1 | 0.00 | 0.00 | 0.00 | 46 | 1015.3 |
| 20260504190206 | 73 | 182 | 7.8 | 11.3 | 0.00 | 0.00 | 0.00 | 46 | 1015.2 |
| 20260504185703 | 74 | 288 | 0.9 | 1.7 | 0.00 | 0.00 | 0.00 | 44 | 1015.1 |
| 20260504185159 | 73 | 222 | 4.3 | 5.2 | 0.00 | 0.00 | 0.00 | 45 | 1015.3 |
| 20260504184656 | 73 | 183 | 7.0 | 7.8 | 0.00 | 0.00 | 0.00 | 45 | 1015.3 |
| 20260504184151 | 73 | 290 | 3.5 | 4.3 | 0.00 | 0.00 | 0.00 | 45 | 1015.4 |
| 20260504183648 | 71 | 151 | 3.5 | 5.2 | 0.00 | 0.00 | 0.00 | 47 | 1015.2 |
| 20260504183145 | 71 | 165 | 5.2 | 6.1 | 0.00 | 0.00 | 0.00 | 47 | 1015.6 |
| 20260504182643 | 71 | 208 | 3.5 | 6.1 | 0.00 | 0.00 | 0.00 | 47 | 1015.7 |
| 20260504182140 | 71 | 149 | 0.9 | 2.6 | 0.00 | 0.00 | 0.00 | 47 | 1015.6 |
| 20260504181638 | 71 | 228 | 3.5 | 4.3 | 0.00 | 0.00 | 0.00 | 47 | 1015.8 |
| 20260504181135 | 71 | 184 | 4.3 | 5.2 | 0.00 | 0.00 | 0.00 | 46 | 1015.8 |
| 20260504180634 | 71 | 306 | 1.7 | 4.3 | 0.00 | 0.00 | 0.00 | 46 | 1015.9 |
| 20260504180132 | 71 | 305 | 4.3 | 6.1 | 0.00 | 0.00 | 0.00 | 46 | 1016.0 |
| 20260504175629 | 71 | 190 | 1.7 | 1.7 | 0.00 | 0.00 | 0.00 | 46 | 1015.8 |
| 20260504175126 | 71 | 246 | 3.5 | 5.2 | 0.00 | 0.00 | 0.00 | 46 | 1016.2 |
| 20260504174624 | 72 | 308 | 1.7 | 2.6 | 0.00 | 0.00 | 0.00 | 45 | 1016.3 |
| 20260504174120 | 72 | 218 | 4.3 | 6.1 | 0.00 | 0.00 | 0.00 | 44 | 1016.3 |
| 20260504173617 | 73 | 185 | 5.2 | 7.8 | 0.00 | 0.00 | 0.00 | 43 | 1016.2 |
| 20260504173115 | 72 | 260 | 5.2 | 7.0 | 0.00 | 0.00 | 0.00 | 44 | 1016.3 |
| 20260504172611 | 72 | 149 | 9.6 | 13.0 | 0.00 | 0.00 | 0.00 | 44 | 1016.0 |
| 20260504172108 | 70 | 282 | 5.2 | 7.0 | 0.00 | 0.00 | 0.00 | 45 | 1016.5 |
| 20260504171604 | 72 | 43 | 2.6 | 4.3 | 0.00 | 0.00 | 0.00 | 45 | 1016.5 |
| 20260504171101 | 72 | 165 | 2.6 | 5.2 | 0.00 | 0.00 | 0.00 | 44 | 1016.5 |
| 20260504170557 | 72 | 345 | 2.6 | 4.3 | 0.00 | 0.00 | 0.00 | 43 | 1016.5 |
| 20260504150941 | 66 | 279 | 5.2 | 7.0 | 0.00 | 0.00 | 0.00 | 46 | 1017.8 |
| 20260504150438 | 66 | 213 | 4.3 | 6.1 | 0.00 | 0.00 | 0.00 | 46 | 1018.1 |